{"data":{"norad_id":54006,"intl_designator":"2022-125AU","name":"STARLINK-5096","alt_names":[],"object_type":"PAYLOAD","status":"ACTIVE","operator":null,"country":"US","launch_date":"2022-10-05","launch_site_code":"AFWTR","launch_vehicle":null,"mission":null,"orbit_class":"UNKNOWN","rcs_meters":null,"size_class":null,"mass_kg":null,"dimensions":null,"purposes":["comms"],"wikipedia_slug":null,"has_3d_model":false,"image_url":null,"decayed_at":null,"tle_current":{"epoch":"2026-05-25T05:30:49.181760Z","epoch_age_seconds":49055,"freshness":"FRESH","line1":"1 54006U 22125AU  26145.22973590  .00000125  00000+0  25964-4 0  9999","line2":"2 54006  53.2143 230.0918 0001185  85.9710 274.1418 15.08838967201019","mean_motion":15.08838967,"eccentricity":0.0001185,"inclination_deg":53.2143,"raan_deg":230.0918,"arg_perigee_deg":85.971,"mean_anomaly_deg":274.1418,"bstar":2.5964e-5,"rev_number":20101,"period_min":95.437620017405,"perigee_km":538.9267772334,"apogee_km":540.5663156339,"semimajor_km":6917.8835464336,"source":"CELESTRAK","updated_at":"2026-05-25T13:38:17.625186Z"}}}